Hourly Data Report for October 30, 2014

All times are specified in Local Standard Time (LST). Add 1 hour to adjust for Daylight Saving Time where and when it is observed.

Metadata including Station Name, Province, Latitude, Longitude, Elevation, Climate ID, WMO ID, TC ID
GRANBY
QUEBEC
Latitude: 45°22'22.000" N Longitude: 72°46'26.000" W Elevation: 86.00 m
Climate ID: 7022802 WMO ID: TC ID: MGB
Hourly Data Report for October 30, 2014
Temp Definition
°C

Dew Point Temp Definition
°C

Rel Hum Definition
%

Wind Dir Definition
10's deg
Wind Spd Definition
km/h

Visibility Definition
km

Stn Press Definition
kPa

Hmdx Definition

Wind Chill Definition

Weather Definition

00:00 8.1 4.3 77 23 6 99.90 LegendNANA
01:00 8.0 4.4 79 23 7 99.91 LegendNANA
02:00 7.4 4.5 82 22 4 99.93 LegendNANA
03:00 7.7 4.6 81 25 8 99.95 LegendNANA
04:00 7.6 4.7 82 27 5 100.02 LegendNANA
05:00 7.3 3.7 78 31 7 100.10 LegendNANA
06:00 6.3 2.7 78 35 6 100.18 LegendNANA
07:00 5.5 2.4 80 32 5 100.25 LegendNANA
08:00 5.6 1.8 76 32 7 100.33 LegendNANA
09:00 5.5 1.1 73 30 8 100.36 LegendNANA
10:00 5.6 1.0 72 30 8 100.38 LegendNANA
11:00 5.9 0.8 70 27 5 100.39 LegendNANA
12:00 6.8 1.1 67 28 9 100.38 LegendNANA
13:00 7.3 1.5 67 26 7 100.35 LegendNANA
14:00 7.2 0.9 64 22 5 100.34 LegendNANA
15:00 8.3 1.0 60 26 14 100.35 LegendNANA
16:00 7.1 1.2 66 25 12 100.40 LegendNANA
17:00 6.5 0.8 67 26 10 100.45 LegendNANA
18:00 6.2 0.5 67 25 7 100.51 LegendNANA
19:00 5.9 0.3 67 24 5 100.53 LegendNANA
20:00 5.6 0.7 71 25 6 100.52 LegendNANA
21:00 5.1 0.9 74 23 3 100.55 LegendNANA
22:00 5.0 -1.5 63 31 5 100.54 LegendNANA
23:00 4.4 -1.5 65   0 100.53 LegendNANA

Notes on Data Quality.

Legend
  • E = Estimated
  • M = Missing
  • NA = Not Available
  • ‡ = Partner data that is not subject to review by the National Climate Archives